Regional Weather Roundup
Issued by NWS

Home | Current Version | Previous Version | Graphics & Text | Print | Product List | Glossary On
Versions: 1 2 3 4 5 6 7 8 9 10 11 12 13 14 15 16 17 18 19 20 21 22 23 24 25 26 27 28 29 30 31 32 33 34 35 36 37 38 39 40 41 42 43 44 45 46 47 48 49 50
944
ASUS43 KDMX 242101
RWRIA

WEATHER ROUNDUP FOR IOWA
NATIONAL WEATHER SERVICE DES MOINES IA
300 PM CST FRI FEB 24 2017

NOTE: "FAIR" INDICATES FEW OR NO CLOUDS BELOW 12,000 FEET WITH NO
SIGNIFICANT WEATHER AND/OR OBSTRUCTIONS TO VISIBILITY.

* - THESE STATIONS ARE NOT NWS STATIONS...THUS NOT UNDER NWS
QUALITY CONTROL.  THEY ALSO DO NOT REPORT WEATHER SUCH
AS PRECIPITATION OR FOG.

IAZ001>003-012>014-020>022-031>034-043>046-242200-
   NORTHWEST IOWA

CITY           SKY/WX    TMP DP  RH WIND       PRES   REMARKS
CARROLL *      SNOW      25  25 100 N29G35    29.78R VSB 1/4 WCI   8
CHEROKEE *     CLOUDY    24  18  75 N17G24    29.84S WCI  11
DENISON *      SNOW      23  21  93 N20G35    29.79S VSB 1/4 WCI   8
LE MARS *      CLOUDY    27  16  63 N23       29.90R WCI  12
SHELDON *      CLOUDY    25  21  86 N25       29.84R WCI   9
SIOUX CITY     CLOUDY    27  16  63 N26G32    29.90R WCI  12
SPENCER        CLOUDY    24  16  71 N24G35    29.81S WCI   8
STORM LAKE *   LGT SNOW  23  18  80 MISG      29.80R
$$

IAZ055>058-069>071-079>083-090>094-242200-
   SOUTHWEST IOWA

CITY           SKY/WX    TMP DP  RH WIND       PRES   REMARKS
ATLANTIC *     LGT SNOW  25  23  93 N21G28    29.80R VSB 3/4 WCI  10
CLARINDA *     FOG       27  25  93 N17G28    29.83R VSB 1/2 WCI  14
COUNCIL BLFS * LGT SNOW  25  23  93 NW22G29   29.83R WCI  10
CRESTON *      MIX PCPN  27  23  86 N22G32    29.75R WCI  12
HARLAN  *      MIX PCPN  25  25 100 N18G31    29.85R VSB 3/4 WCI  11
LAMONI         LGT SNOW  28  26  92 NW17G24   29.70R FOG     WCI  16
RED OAK *      SNOW      27  23  86 N18G28    29.83R VSB 1/2 WCI  13
SHENANDOAH *   MIX PCPN  27  25  93 N21       29.85R VSB 3/4 WCI  13
$$

IAZ047>049-059>061-072>074-084-242200-
   CENTRAL IOWA

CITY           SKY/WX    TMP DP  RH WIND       PRES   REMARKS
AMES           LGT SNOW  26  25  96 N25G35    29.71R FOG     WCI  11
ANKENY *       MIX PCPN  27  25  93 MISG      29.72R
BOONE *        MIX PCPN  25  25 100 VRB7G18   29.71R VSB 3/4 WCI  17
CHARITON *     LGT RAIN  30  30 100 NW16G23   29.67R WCI  19
DES MOINES     LGT SNOW  28  24  85 N15G25    29.72R FOG     WCI  16
GRINNELL*      MIX PCPN  32  30  93 N13G18    29.65R WCI  22
KNOXVILLE *    MIX PCPN  32  30  93 NW16      29.65R WCI  21
MARSHALLTOWN   FRZ RAIN  28  26  92 N25G33    29.66R FOG     WCI  13
NEWTON *       PTSUNNY   30  30 100 N15G22    29.65R FOG     WCI  19
PELLA *        RAIN      32  31  94 NW13G21   29.67R WCI  23
PERRY *        LGT SNOW  26  24  93 N22       29.75R VSB 3/4 WCI  11
$$

IAZ004>006-015-016-023>025-035-036-242200-
   NORTH CENTRAL IOWA

CITY           SKY/WX    TMP DP  RH WIND       PRES   REMARKS
ALGONA *       FOG       23  21  93 N30G38    29.76R VSB<1/4 WCI   5
CLARION *      FOG       23  25 100 N25G35    29.73R VSB 1/4 WCI   7
ESTHERVILLE    CLOUDY    22  17  81 N23G33    29.79S HAZE    WCI   6
FORT DODGE *   CLOUDY    25  18  74 N15G28    29.76R VSB 3/4 WCI  12
MASON CITY     SNOW      24  24 100 N28G35    29.72R VSB 1/2 WCI   7
FOREST CITY *  LGT SNOW  27  23  86 N22       29.73R VSB 1   WCI  12
WEBSTER CITY * MIX PCPN  25  21  86 N24G35    29.72R VSB 1/4 WCI   9
IOWA FALLS *   LGT SNOW  27  24  87 N18G28    29.70R WCI  14
$$

IAZ007>011-017>019-026>030-037>042-050>054-066-242200-
   NORTHEAST IOWA

CITY           SKY/WX    TMP DP  RH WIND       PRES   REMARKS
CEDAR RAPIDS   CLOUDY    33  32  96 N16       29.58S WCI  23
CHARLES CITY * MIX PCPN  27  27 100 N21G30    29.66R WCI  13
CLINTON *      MIX PCPN  36  35  96 N10       29.56R FOG     WCI  28
DECORAH *      CLOUDY    28  25  86 NE15      29.62R WCI  17
DUBUQUE        CLOUDY    30  29  96 N16       29.56R FOG     WCI  19
MONTICELLO *   MIX PCPN  32  30  93 NE12      29.58S WCI  23
OELWEIN *      MOSUNNY   30  30 100 N21       29.61S FOG     WCI  17
WATERLOO       CLOUDY    31  28  89 N21       29.63S FOG     WCI  18
$$

IAZ064-065-067-068-078-242200-
   EAST CENTRAL IOWA

CITY           SKY/WX    TMP DP  RH WIND       PRES   REMARKS
DAVENPORT      CLOUDY    37  34  89 N9        29.56R FOG     WCI  30
IOWA CITY      CLOUDY    36  32  85 MISG      29.61R
MUSCATINE *    CLOUDY    37  36  93 NW9       29.59R FOG     WCI  31
QUAD CITIES    CLOUDY    41  35  79 NW6       29.56R HAZE
$$

IAZ062-063-075>077-085>089-095>099-242200-
   SOUTHEAST IOWA

CITY           SKY/WX    TMP DP  RH WIND       PRES   REMARKS
BURLINGTON     CLOUDY    40  37  89 W9        29.58R WCI  34
FAIRFIELD *    PTSUNNY   36  32  87 NW10      29.61R WCI  28
KEOKUK *       CLOUDY    41  36  81 W13       29.60R
CENTERVILLE *  FLURRIES  32  32 100 NW14      29.66R WCI  22
OTTUMWA        CLOUDY    35  33  92 NW13      29.62R WCI  26
WASHINGTON *   CLOUDY    36  34  93 N10       29.61R WCI  28
$$

ABBREVIATIONS USED IN REMARKS
   TC - TEMPERATURES IN CELSIUS
  WCI - WIND CHILL INDEX
   HX - HEAT INDEX
  VSB - VISIBILITY
$$





USA.gov is the U.S. government's official web portal to all federal, state and local government web resources and services.